Regional Weather Roundup
Issued by NWS

Home | Current Version | Previous Version | Text Only | Print | Product List | Glossary On
Versions: 1 2 3 4 5 6 7 8 9 10 11 12 13 14 15 16 17 18 19 20 21 22 23 24 25 26 27 28 29 30 31 32 33 34 35 36 37 38 39 40 41 42 43 44 45 46 47 48 49 50
588
ASUS43 KTOP 181808
RWRKS

WEATHER ROUNDUP FOR KANSAS
NATIONAL WEATHER SERVICE GOODLAND KS
1200 PM CST WED JAN 18 2017

NOTE:  "FAIR" INDICATES FEW OR NO CLOUDS BELOW 12,000 FEET WITH NO
SIGNIFICANT WEATHER AND/OR OBSTRUCTIONS TO VISIBILITY.

KSZ001>006-013>018-027>032-041>047-181900-
NORTHWEST KANSAS

CITY           SKY/WX    TMP DP  RH WIND       PRES   REMARKS
GOODLAND       SUNNY     39  31  72 CALM      29.91F
6HR MIN TEMP:  22; 6HR MAX TEMP:  39;

HAYS           CLOUDY    46  38  73 SW15      30.00
HILL CITY      SUNNY     43  36  76 SW14      29.98F
6HR MIN TEMP:  28; 6HR MAX TEMP:  43;

RUSSELL        CLOUDY    48  37  65 S18       29.98F
6HR MIN TEMP:  29; 6HR MAX TEMP:  48;

$$

KSZ061>065-074>080-084>089-181900-
SOUTHWEST KANSAS

CITY           SKY/WX    TMP DP  RH WIND       PRES   REMARKS
DODGE CITY     MOSUNNY   51  41  68 S18       30.01F
6HR MIN TEMP:  37; 6HR MAX TEMP:  51;

ELKHART          N/A     48  33  56 S17         N/A
GARDEN CITY    MOSUNNY   49  43  80 S12       29.97F
6HR MIN TEMP:  32; 6HR MAX TEMP:  49;

GREAT BEND     CLOUDY    49  37  63 S18       30.02F
LIBERAL        MOSUNNY   48  43  81 S17       30.01F
PRATT          CLOUDY    46  32  57 S14       30.05F
6HR MIN TEMP:  31; 6HR MAX TEMP:  49;

$$

KSZ066>073-081>083-090>101-181900-
SOUTHEAST KANSAS

CITY           SKY/WX    TMP DP  RH WIND       PRES   REMARKS
CHANUTE        CLOUDY    41  39  93 S3        30.13F
6HR MIN TEMP:  31; 6HR MAX TEMP:  41;

COFFEYVILLE    CLOUDY    46  40  79 S6        30.16F
6HR MIN TEMP:  29; 6HR MAX TEMP:  46;

HUTCHINSON     CLOUDY    49  35  58 S12       30.06F
6HR MIN TEMP:  26; 6HR MAX TEMP:  49;

MEDICINE LODGE   N/A     49  35  58 S13       30.06F
NEWTON         CLOUDY    48  38  68 S13       30.08F
PARSONS        CLOUDY    44  40  85 S5        30.15F
6HR MIN TEMP:  29; 6HR MAX TEMP:  44;

WICHITA INTL   PTSUNNY   51  38  60 S13       30.09F
6HR MIN TEMP:  28; 6HR MAX TEMP:  52;

WICHITA JABRA  MOSUNNY   50  36  58 S16       30.09F
6HR MIN TEMP:  29; 6HR MAX TEMP:  51;

WICHITA MCCONL PTSUNNY   49  37  62 S12       30.08F
WINFIELD       CLOUDY    48  40  73 SE9       30.12F
6HR MIN TEMP:  32; 6HR MAX TEMP:  48;

$$

KSZ007>012-019>026-033>040-048>060-102>105-181900-
NORTHEAST KANSAS

CITY           SKY/WX    TMP DP  RH WIND       PRES   REMARKS
CONCORDIA      CLOUDY    43  36  76 S18       30.01F
6HR MIN TEMP:  28; 6HR MAX TEMP:  43;

EMPORIA        PTSUNNY   49  37  63 S16       30.10F
6HR MIN TEMP:  28; 6HR MAX TEMP:  49;

LAWRENCE       SUNNY     41  36  82 SE12      30.13F
6HR MIN TEMP:  22; 6HR MAX TEMP:  41;

MANHATTAN      MOSUNNY   46  36  68 SW5       30.07F
6HR MIN TEMP:  22; 6HR MAX TEMP:  46;

MARYSVILLE     CLOUDY    43  34  70 S9        30.04F
OLATHE IND     FOG       37  37 100 S14       30.13F VSB 1   WCI  28
6HR MIN TEMP:  27; 6HR MAX TEMP:  37;

OLATHE EXE     CLOUDY    36  36 100 S8        30.12F FOG
6HR MIN TEMP:  28; 6HR MAX TEMP:  36;

SALINA         CLOUDY    41  34  76 S15       30.08S
TOPEKA BILLARD SUNNY     48  36  63 S12       30.10F
6HR MIN TEMP:  25; 6HR MAX TEMP:  48;

TOPEKA FORBES  SUNNY     48  37  65 S9        30.10F
6HR MIN TEMP:  24; 6HR MAX TEMP:  48;

$$




USA.gov is the U.S. government's official web portal to all federal, state and local government web resources and services.